Weather History for Dublin, Ireland

Change the Weather History Date:

Monday, March 26, 2012

  Actual Average Record
Temperature  
Mean Temperature 46 °F -  
Max Temperature 59 °F 52 °F 59 °F (2012)
Min Temperature 34 °F 40 °F 28 °F (2002)
Degree Days  
Heating Degree Days 18    
Moisture  
Dew Point 38 °F    
Average Humidity 75    
Maximum Humidity 100    
Minimum Humidity 32    
Precipitation  
Precipitation 0.00 in 0.07 in - ()
Sea Level Pressure  
Sea Level Pressure 30.56 in    
Wind  
Wind Speed 5 mph ()    
Max Wind Speed 14 mph    
Max Gust Speed -    
Visibility 3.1 miles    
Events Fog    
Averages and records for this station are not official NWS values.
T = Trace of Precipitation, MM = Missing Value Source: Averaged Metar Reports

Daily Weather History Graph

Daily Weather History Graph

Search for Another Location

Airport:

Trip Planner

Search our weather history database for the weather conditions in past years. The results will help you decide how hot, cold, wet, or windy it might be!

Date:

Astronomy

Mar. 26, 2012 Rise Set
Actual Time 7:12 AM IST 7:50 PM IST
Civil Twilight 6:37 AM IST 8:25 PM IST
Nautical Twilight 5:55 AM IST 9:07 PM IST
Astronomical Twilight 5:10 AM IST 9:52 PM IST
Moon 8:16 AM IST (3/26) No Moon Set
Length of Visible Light 13h 48m
Length of Day
12h 37m
Waxing Crescent, 13% of the Moon is Illuminated
Mar 26
Waxing Crescent
Mar 30
First Quarter
Apr 6
Full
Apr 13
Last Quarter
Apr 21
New

Hourly Weather History & Observations

Time (IST) Temp. Windchill Dew Point Humidity Pressure Visibility Wind Dir Wind Speed Gust Speed Precip Events Conditions
12:00 AM 39.2 °F - 35.6 °F 87% 30.54 in - North 1.2 mph - N/A   Clear
12:30 AM 39.2 °F - 37.4 °F 93% 30.54 in - Calm Calm - N/A   Clear
1:00 AM 38 °F - 37 °F 94% 30.57 in 6 mi East 2.2 mph - -   Mist
1:00 AM 37.4 °F - 37.4 °F 100% 30.54 in - ESE 1.2 mph - N/A   Clear
1:30 AM 37.4 °F - 35.6 °F 93% 30.54 in - North 1.2 mph - N/A   Clear
2:00 AM 37.4 °F 33.8 °F 37.4 °F 100% 30.54 in 3.7 mi NNE 4.6 mph - N/A   Mostly Cloudy
2:30 AM 35.6 °F 30.7 °F 35.6 °F 100% 30.54 in 3.1 mi NNE 5.8 mph - N/A   Mostly Cloudy
3:00 AM 37.4 °F 33.8 °F 37.4 °F 100% 30.54 in 3.1 mi NNE 4.6 mph - N/A   Mostly Cloudy
3:30 AM 39.2 °F 35.0 °F 39.2 °F 100% 30.54 in 3.1 mi NNE 5.8 mph - N/A   Mostly Cloudy
4:00 AM 39.2 °F 35.9 °F 39.2 °F 100% 30.54 in 1.6 mi NNE 4.6 mph - N/A   Mostly Cloudy
4:30 AM 39.2 °F 35.9 °F 39.2 °F 100% 30.54 in 1.6 mi NNE 4.6 mph - N/A   Mostly Cloudy
5:00 AM 35.6 °F 32.8 °F 35.6 °F 100% 30.54 in 1.6 mi NE 3.5 mph - N/A   Mostly Cloudy
5:30 AM 37.4 °F 34.9 °F 37.4 °F 100% 30.54 in 1.2 mi ENE 3.5 mph - N/A   Mostly Cloudy
6:00 AM 37.4 °F - 37.4 °F 100% 30.54 in 0.6 mi North 1.2 mph - N/A Fog Fog
6:30 AM 35.6 °F 32.8 °F 35.6 °F 100% 30.54 in 0.6 mi East 3.5 mph - N/A Fog Fog
7:00 AM 36 °F - 36 °F 98% 30.57 in 0 mi East 8.9 mph - - Fog Partial Fog
7:00 AM 35.6 °F 29.2 °F 35.6 °F 100% 30.54 in 0.4 mi East 8.1 mph - N/A Fog Fog
7:30 AM 37.4 °F 33.8 °F 37.4 °F 100% 30.54 in 0.3 mi ESE 4.6 mph - N/A Fog Fog
8:00 AM 35.6 °F 29.9 °F 35.6 °F 100% 30.54 in 0.1 mi ESE 6.9 mph - N/A Fog Fog
8:30 AM 37.4 °F - 37.4 °F 100% 30.57 in 0.3 mi North 1.2 mph - N/A Fog Fog
9:00 AM 46.4 °F - 46.4 °F 100% 30.57 in 0.5 mi East 2.3 mph - N/A Fog Fog
9:30 AM 50.0 °F - 46.4 °F 87% 30.57 in 3.1 mi East 4.6 mph - N/A   Partly Cloudy
10:00 AM 53.6 °F - 46.4 °F 77% 30.57 in 4.3 mi ESE 4.6 mph - N/A   Partly Cloudy
10:30 AM 55.4 °F - 41.0 °F 58% 30.57 in 6.2 mi ESE 8.1 mph - N/A   Partly Cloudy
11:00 AM 57.2 °F - 39.2 °F 51% 30.57 in 6.2 mi SE 10.4 mph - N/A   Partly Cloudy
11:30 AM 59.0 °F - 39.2 °F 48% 30.57 in 6.2 mi SE 12.7 mph - N/A   Partly Cloudy
12:00 PM 59.0 °F - 37.4 °F 45% 30.57 in - ESE 12.7 mph - N/A   Clear
12:30 PM 57.2 °F - 35.6 °F 44% 30.57 in - SE 12.7 mph - N/A   Clear
1:00 PM 58 °F - 36 °F 32% 30.58 in 25 mi ESE 13.4 mph - -   Partly Cloudy
1:00 PM 59.0 °F - 35.6 °F 42% 30.57 in - ESE 13.8 mph - N/A   Clear
1:30 PM 59.0 °F - 33.8 °F 39% 30.57 in - ESE 12.7 mph - N/A   Clear
2:00 PM 59.0 °F - 37.4 °F 45% 30.57 in - ESE 13.8 mph - N/A   Clear
2:30 PM 59.0 °F - 35.6 °F 42% 30.57 in - ESE 13.8 mph - N/A   Clear
3:00 PM 59.0 °F - 33.8 °F 39% 30.57 in - ESE 11.5 mph - N/A   Clear
3:30 PM 59.0 °F - 35.6 °F 42% 30.57 in - SE 12.7 mph - N/A   Clear
4:00 PM 59.0 °F - 32.0 °F 36% 30.57 in - ESE 12.7 mph - N/A   Clear
4:30 PM 59.0 °F - 32.0 °F 36% 30.54 in - ESE 11.5 mph - N/A   Clear
5:00 PM 59.0 °F - 32.0 °F 36% 30.54 in - East 10.4 mph - N/A   Clear
5:30 PM 57.2 °F - 37.4 °F 48% 30.54 in - East 9.2 mph - N/A   Clear
6:00 PM 55.4 °F - 39.2 °F 54% 30.54 in - East 8.1 mph - N/A   Clear
6:30 PM 55.4 °F - 35.6 °F 47% 30.54 in - East 8.1 mph - N/A   Clear
7:00 PM 52 °F - 41 °F 56% 30.58 in 25 mi East 8.9 mph - -   Scattered Clouds
7:00 PM 51.8 °F - 41.0 °F 67% 30.57 in 6.2 mi East 8.1 mph - N/A   Partly Cloudy
7:30 PM 48.2 °F - 41.0 °F 76% 30.57 in 6.2 mi East 9.2 mph - N/A   Partly Cloudy
8:00 PM 44.6 °F 40.7 °F 41.0 °F 87% 30.57 in 6.2 mi East 6.9 mph - N/A   Partly Cloudy
8:30 PM 44.6 °F 41.4 °F 39.2 °F 81% 30.57 in 6.2 mi East 5.8 mph - N/A   Partly Cloudy
9:00 PM 41.0 °F 39.0 °F 39.2 °F 93% 30.57 in 6.2 mi Variable 3.5 mph - N/A   Partly Cloudy
9:30 PM 44.6 °F - 42.8 °F 93% 30.57 in - ENE 2.3 mph - N/A   Clear
10:00 PM 44.6 °F 42.2 °F 41.0 °F 87% 30.57 in - North 4.6 mph - N/A   Clear
10:30 PM 46.4 °F 44.3 °F 42.8 °F 87% 30.57 in - North 4.6 mph - N/A   Clear
11:00 PM 46.4 °F 44.3 °F 42.8 °F 87% 30.57 in - NNE 4.6 mph - N/A   Clear
11:30 PM 42.8 °F 40.1 °F 39.2 °F 87% 30.60 in - NNE 4.6 mph - N/A   Clear